Pellston, MI

11:47 PM EST on November 19, 2017 (GMT -0500)
Pellston Regional Airport Of Emmet County

Weather History for KPLN - March, 2014

Change the Weather History Date:

Thursday, March 13, 2014

  Actual Average Record
Temperature  
Mean Temperature 6 °F -  
Max Temperature 27 °F 35 °F 62 °F (1990)
Min Temperature -14 °F 16 °F -14 °F (1960)
Degree Days  
Heating Degree Days 58    
Moisture  
Dew Point 1 °F    
Average Humidity 66    
Maximum Humidity 82    
Minimum Humidity 49    
Precipitation  
Precipitation 0.00 in - - ()
Sea Level Pressure  
Sea Level Pressure 29.98 in    
Wind  
Wind Speed 5 mph (SW)    
Max Wind Speed 17 mph    
Max Gust Speed 25 mph    
Visibility 10 miles    
Events      
Averages and records for this station are not official NWS values.
T = Trace of Precipitation, MM = Missing Value Source: NWS Daily Summary

Daily Weather History Graph

Daily Weather History Graph

Search for Another Location

Airport or City:

Trip Planner

Search our weather history database for the weather conditions in past years. The results will help you decide how hot, cold, wet, or windy it might be!

Date:

Astronomy

Mar. 13, 2014 Rise Set
Actual Time 7:55 AM EDT 7:42 PM EDT
Civil Twilight 7:26 AM EDT 8:12 PM EDT
Nautical Twilight 6:51 AM EDT 8:46 PM EDT
Astronomical Twilight 6:16 AM EDT 9:21 PM EDT
Moon 5:01 PM EDT (3/13) 6:08 AM EDT (3/13)
Length of Visible Light 12h 46m
Length of Day
11h 46m
Waxing Gibbous, 91% of the Moon is Illuminated
Mar 13
Waxing Gibbous
Mar 16
Full
Mar 23
Last Quarter
Mar 30
New
Apr 7
First Quarter

Hourly Weather History & Observations

Time (EDT) Temp. Windchill Dew Point Humidity Pressure Visibility Wind Dir Wind Speed Gust Speed Precip Events Conditions
12:54 AM -2.0 °F -13.9 °F -7.1 °F 79% 30.13 in 10.0 mi WNW 5.8 mph - N/A   Clear
1:54 AM -2.0 °F -12.2 °F -7.1 °F 79% 30.12 in 10.0 mi NW 4.6 mph - N/A   Clear
2:54 AM -5.1 °F -13.6 °F -9.9 °F 80% 30.12 in 10.0 mi WNW 3.5 mph - N/A   Clear
3:54 AM -9.9 °F - -15.0 °F 78% 30.10 in 10.0 mi Calm Calm - N/A   Clear
4:54 AM -11.0 °F -20.4 °F -17.0 °F 75% 30.10 in 10.0 mi West 3.5 mph - N/A   Clear
5:54 AM -11.9 °F - -17.0 °F 78% 30.10 in 10.0 mi Calm Calm - N/A   Clear
6:54 AM -13.0 °F - -18.0 °F 78% 30.12 in 10.0 mi Calm Calm - N/A   Clear
7:54 AM -14.1 °F - -18.9 °F 79% 30.12 in 10.0 mi Calm Calm - N/A   Clear
8:54 AM -13.0 °F - -18.0 °F 78% 30.12 in 10.0 mi Calm Calm - N/A   Clear
9:54 AM -2.9 °F - -7.1 °F 82% 30.10 in 10.0 mi Calm Calm - N/A   Scattered Clouds
10:54 AM 3.9 °F - -2.0 °F 76% 30.09 in 10.0 mi Calm Calm - N/A   Overcast
11:54 AM 12.0 °F 0.5 °F -2.0 °F 53% 30.06 in 10.0 mi South 8.1 mph - N/A   Mostly Cloudy
12:54 PM 18.0 °F 8.7 °F 1.9 °F 50% 30.04 in 10.0 mi SW 6.9 mph - N/A   Overcast
1:54 PM 19.9 °F 7.3 °F 6.1 °F 55% 30.00 in 10.0 mi SSW 12.7 mph - N/A   Overcast
2:54 PM 23.0 °F 12.4 °F 8.1 °F 53% 29.95 in 10.0 mi SW 10.4 mph - N/A   Overcast
3:54 PM 25.0 °F 11.7 °F 8.1 °F 49% 29.92 in 10.0 mi SSW 17.3 mph 25.3 mph N/A   Overcast
4:54 PM 25.0 °F 14.2 °F 9.0 °F 51% 29.90 in 10.0 mi SW 11.5 mph 21.9 mph N/A   Overcast
5:54 PM 25.0 °F 14.8 °F 10.0 °F 53% 29.88 in 10.0 mi SSW 10.4 mph - N/A   Overcast
6:54 PM 26.1 °F 17.6 °F 10.9 °F 53% 29.87 in 10.0 mi SSW 8.1 mph - N/A   Overcast
7:54 PM 27.0 °F 18.0 °F 12.0 °F 53% 29.87 in 10.0 mi SSW 9.2 mph - N/A   Overcast
8:54 PM 27.0 °F 19.5 °F 12.9 °F 56% 29.87 in 10.0 mi SSW 6.9 mph - N/A   Overcast
9:03 PM 27.0 °F 18.7 °F 14.0 °F 58% 29.81 in 10.0 mi SSW 8.1 mph - N/A   Overcast
9:54 PM 27.0 °F 16.1 °F 16.0 °F 63% 29.83 in 10.0 mi SSW 12.7 mph 21.9 mph N/A   Overcast
10:43 PM 26.1 °F 15.0 °F 17.1 °F 69% 29.76 in 10.0 mi SSW 12.7 mph 18.4 mph N/A   Scattered Clouds
10:54 PM 26.1 °F 16.8 °F 17.1 °F 69% 29.80 in 10.0 mi South 9.2 mph - N/A   Clear
11:54 PM 26.1 °F 15.6 °F 18.0 °F 71% 29.77 in 10.0 mi SSW 11.5 mph 19.6 mph N/A   Clear